#timestamp,LO_Frequency,Hit,StdDev 
1695096015.1,286046998.4,N
1695096016.0,286046998.4,N
1695096035.8,286046996.7,N
1695096055.6,286046995.0,N
1695096075.5,286046995.0,N
1695096095.3,286046999.6,N
1695096115.1,286047000.5,N
1695096135.9,286047000.7,N
1695096155.7,286047000.7,N
1695096175.6,286047001.0,N
1695096195.4,286046998.9,N
1695096215.2,286047000.1,N
1695096235.1,286047002.3,N
1695096236.0,286047002.3,N
1695096255.8,286047002.1,N
1695096275.6,286047001.6,N
1695096295.5,286047003.9,N
1695096315.3,286047003.9,N
1695096335.2,286047003.9,N
1695096355.9,286047001.4,N
1695096375.7,286047003.7,N
1695096395.6,286047001.7,N
1695096415.4,286047000.5,N
1695096435.2,286047000.1,N
1695096455.1,286046999.8,N
1695096456.0,286046999.8,N
1695096475.8,286047001.0,N
1695096495.7,286047001.2,N
1695096515.5,286047000.1,N
1695096535.3,286047002.7,N
1695096555.2,286047002.4,N
1695096575.0,286047000.9,N
1695096575.9,286047000.9,N
1695096595.8,286047002.5,N
1695096615.6,286047000.4,N
1695096635.4,286047002.0,N
1695096655.3,286047003.7,N
1695096675.1,286047003.2,N
1695096695.8,286047004.1,N
1695096715.7,286047005.5,Y
1695096735.5,286047003.9,P
1695096755.4,286047004.0,P
1695096775.2,286047001.7,N
1695096795.0,286047003.5,Y
1695096795.9,286047003.5,P
1695096815.8,286047000.4,N
1695096835.6,286046999.8,N
1695096855.5,286046996.6,N
1695096875.3,286046998.7,N
1695096895.1,286046998.6,N
1695096915.9,286046999.4,N
1695096935.7,286046996.7,N
1695096955.5,286046999.2,N
1695096975.4,286046999.0,N
1695096995.2,286046996.9,N
1695097015.1,286046998.8,N
1695097016.0,286046998.8,N
1695097035.8,286046998.5,N
1695097055.6,286046999.7,N
1695097075.5,286047001.9,N
1695097095.3,286047001.4,N
1695097115.1,286047004.3,N
1695097135.9,286047001.4,N
1695097155.7,286047000.2,N
1695097175.6,286046999.7,N
1695097195.4,286046998.9,N
1695097215.2,286047001.1,N
1695097235.1,286046998.9,N
1695097236.0,286046998.9,N
1695097255.8,286046998.6,N
1695097275.6,286047001.1,N
1695097295.5,286047001.8,N
1695097315.3,286047002.6,N
1695097335.2,286047000.1,N
1695097355.9,286047000.8,N
1695097375.7,286046998.1,N
1695097395.6,286047000.2,N
1695097415.4,286047002.7,N
1695097435.2,286047004.4,N
1695097455.1,286047004.3,N
1695097456.0,286047004.3,N
1695097475.8,286047001.8,N
1695097495.7,286047002.2,N
1695097515.5,286047002.6,N
1695097535.3,286047003.9,N
1695097555.2,286047004.3,N
1695097575.0,286046999.7,N
1695097575.9,286046999.7,N
1695097595.8,286047001.9,N
1695097615.6,286047002.2,N
1695097635.4,286047002.0,N
1695097655.3,286047003.5,N
1695097675.1,286047005.7,Y
1695097695.8,286047003.2,P
1695097715.7,286047003.8,P
1695097735.5,286047003.3,P
1695097755.4,286047005.6,Y
1695097775.2,286047000.1,P
1695097795.0,286047002.7,N
1695097795.9,286047002.7,N
1695097815.8,286047001.1,N
1695097835.6,286046998.8,N
1695097855.4,286046998.5,N
1695097875.3,286046999.4,N
1695097895.1,286046998.1,N
1695097915.9,286047000.1,N
1695097935.7,286047011.9,Y
1695097955.5,286047000.4,P
1695097975.4,286046998.1,P
1695097995.2,286046999.5,N
1695098015.1,286046998.5,N
1695098016.0,286046998.5,N
1695098035.8,286047001.2,N
1695098055.6,286046999.9,N
1695098075.5,286047000.1,N
1695098095.3,286047002.6,N
1695098115.1,286046999.9,N
1695098135.9,286047001.1,N
1695098155.7,286046998.3,N
1695098175.6,286047000.9,N
1695098195.4,286047000.6,N
1695098215.2,286047002.5,N
1695098235.1,286047002.1,N
1695098236.0,286047002.1,N
1695098255.8,286046999.8,N
1695098275.7,286047002.2,N
1695098295.5,286047002.3,N
1695098315.3,286046999.7,N
1695098335.2,286047001.8,N
1695098355.0,286047003.0,N
1695098355.9,286047003.0,N
1695098375.7,286047003.3,N
1695098395.6,286047003.5,N
1695098415.4,286047000.4,N
1695098435.3,286047000.2,N
1695098455.1,286047003.8,N
1695098456.0,286047003.8,N
1695098475.8,286047002.1,N
1695098495.7,286047001.3,N
1695098515.5,286047003.6,N
1695098535.4,286047005.6,Y
1695098555.2,286047005.6,P
1695098575.0,286047001.0,N
1695098575.9,286047001.0,N
1695098595.8,286047002.6,N
1695098615.6,286047004.2,N
1695098635.4,286047004.0,N
1695098655.3,286047004.4,N
1695098675.1,286047004.1,N
1695098695.9,286047002.1,N
1695098715.7,286047000.1,N
1695098735.5,286047002.3,N
1695098755.4,286047002.3,N
1695098775.2,286047001.6,N
1695098795.0,286047002.5,N
1695098795.9,286047002.5,N
1695098815.8,286046999.9,N
1695098835.6,286047004.0,N
1695098855.5,286047002.0,N
1695098875.3,286047001.5,N
1695098895.1,286047000.4,N
1695098915.9,286046998.5,N
1695098935.7,286047001.1,N
1695098955.5,286046998.8,N
1695098975.4,286047002.7,N
1695098995.2,286047002.7,N
1695099015.0,286047001.6,N
1695099016.0,286047001.6,N
1695099035.8,286047003.2,N
1695099055.6,286047003.4,N
1695099075.5,286047003.7,N
1695099095.3,286047004.4,N
1695099115.1,286047003.5,N
1695099135.9,286047004.4,N
1695099155.7,286047001.4,N
1695099175.5,286047000.6,N
1695099195.4,286047000.3,N
1695099215.2,286047002.4,N
1695099235.1,286047002.0,N
1695099236.0,286047002.0,N
1695099255.8,286047000.1,N
1695099275.6,286046999.8,N
1695099295.5,286047002.3,N
1695099315.3,286047000.7,N
1695099335.1,286046998.3,N
1695099355.9,286046999.1,N
1695099375.7,286046999.1,N
1695099395.6,286046996.8,N
1695099415.4,286046995.4,N
1695099435.2,286046997.1,N
1695099455.1,286046995.4,N
1695099456.0,286046995.4,N
1695099475.8,286046999.3,N
1695099495.6,286046999.3,N
1695099515.5,286046998.8,N
1695099535.3,286046999.1,N
1695099555.2,286046998.8,N
1695099575.9,286046999.5,N
1695099595.7,286046997.0,N
